Time,TemperatureF,DewpointF,PressureIn,WindDirection,WindDirectionDegrees,WindSpeedMPH,WindSpeedGustMPH,Humidity,HourlyPrecipIn,Conditions,Clouds,dailyrainin,SoftwareType,DateUTC
2013-07-09 00:03:00,81.0,55.8,29.96,SE,135,0.0,0.9,42,0.00,,---,0.00,VWS V13.01,2013-07-08 21:03:00,
2013-07-09 00:09:00,80.8,55.6,29.96,SSE,157,0.0,1.3,42,0.00,,---,0.00,VWS V13.01,2013-07-08 21:09:00,
2013-07-09 00:14:00,80.6,56.1,29.96,WSW,247,0.0,1.3,43,0.00,,---,0.00,VWS V13.01,2013-07-08 21:14:00,
2013-07-09 00:19:00,80.4,55.9,29.95,NNW,337,0.0,2.9,43,0.00,,---,0.00,VWS V13.01,2013-07-08 21:19:00,
2013-07-09 00:24:00,80.4,55.9,29.95,WSW,247,0.0,1.3,43,0.00,,---,0.00,VWS V13.01,2013-07-08 21:24:00,
2013-07-09 00:30:00,80.4,55.9,29.95,SSE,157,0.0,3.6,43,0.00,,---,0.00,VWS V13.01,2013-07-08 21:30:00,
2013-07-09 00:35:00,80.4,55.9,29.95,West,270,0.0,2.5,43,0.00,,---,0.00,VWS V13.01,2013-07-08 21:35:00,
2013-07-09 00:40:00,80.2,55.7,29.95,SSE,157,2.2,2.2,43,0.00,,---,0.00,VWS V13.01,2013-07-08 21:40:00,
2013-07-09 00:46:00,80.2,55.7,29.95,West,270,0.0,5.6,43,0.00,,---,0.00,VWS V13.01,2013-07-08 21:46:00,
2013-07-09 00:51:00,80.2,55.7,29.95,SW,225,0.0,5.4,43,0.00,,---,0.00,VWS V13.01,2013-07-08 21:51:00,
2013-07-09 00:57:00,80.2,55.7,29.95,WNW,292,1.3,1.3,43,0.00,,---,0.00,VWS V13.01,2013-07-08 21:57:00,
2013-07-09 01:04:00,80.2,55.7,29.95,West,270,1.6,2.7,43,0.00,,---,0.00,VWS V13.01,2013-07-08 22:04:00,
2013-07-09 01:10:00,80.2,55.7,29.95,WNW,292,0.0,1.1,43,0.00,,---,0.00,VWS V13.01,2013-07-08 22:10:00,
2013-07-09 01:15:00,80.2,55.7,29.95,SW,225,0.0,4.0,43,0.00,,---,0.00,VWS V13.01,2013-07-08 22:15:00,
2013-07-09 01:21:00,80.1,55.6,29.95,SW,225,0.0,2.5,43,0.00,,---,0.00,VWS V13.01,2013-07-08 22:21:00,
2013-07-09 01:26:00,80.1,55.6,29.95,West,270,0.0,2.2,43,0.00,,---,0.00,VWS V13.01,2013-07-08 22:26:00,
2013-07-09 01:31:00,79.9,55.4,29.95,NNW,337,0.0,1.6,43,0.00,,---,0.00,VWS V13.01,2013-07-08 22:31:00,
2013-07-09 01:36:00,79.9,55.4,29.94,ENE,67,0.0,1.6,43,0.00,,---,0.00,VWS V13.01,2013-07-08 22:36:00,
2013-07-09 01:43:00,79.7,55.2,29.94,East,90,0.0,1.3,43,0.00,,---,0.00,VWS V13.01,2013-07-08 22:43:00,
2013-07-09 01:48:00,79.5,55.1,29.94,SSW,202,6.9,6.9,43,0.00,,---,0.00,VWS V13.01,2013-07-08 22:48:00,
2013-07-09 01:54:00,79.3,54.9,29.94,North,0,0.0,8.1,43,0.00,,---,0.00,VWS V13.01,2013-07-08 22:54:00,
2013-07-09 01:59:00,79.3,54.9,29.94,NNW,337,0.0,8.1,43,0.00,,---,0.00,VWS V13.01,2013-07-08 22:59:00,
2013-07-09 02:04:00,79.3,54.9,29.94,SSW,202,0.0,8.1,43,0.00,,---,0.00,VWS V13.01,2013-07-08 23:04:00,
2013-07-09 02:10:00,79.2,55.4,29.93,SSW,202,0.0,8.1,44,0.00,,---,0.00,VWS V13.01,2013-07-08 23:10:00,
2013-07-09 02:15:00,79.0,55.2,29.94,NE,45,0.0,8.1,44,0.00,,---,0.00,VWS V13.01,2013-07-08 23:15:00,
2013-07-09 02:20:00,79.0,55.2,29.93,South,180,0.0,8.1,44,0.00,,---,0.00,VWS V13.01,2013-07-08 23:20:00,
2013-07-09 02:26:00,78.6,54.9,29.93,South,180,0.0,8.1,44,0.00,,---,0.00,VWS V13.01,2013-07-08 23:26:00,
2013-07-09 02:32:00,78.6,54.9,29.93,SSE,157,0.0,8.1,44,0.00,,---,0.00,VWS V13.01,2013-07-08 23:32:00,
2013-07-09 02:37:00,78.6,54.9,29.93,ESE,112,0.0,1.3,44,0.00,,---,0.00,VWS V13.01,2013-07-08 23:37:00,
2013-07-09 02:44:00,78.3,55.2,29.93,NE,45,0.0,2.0,45,0.00,,---,0.00,VWS V13.01,2013-07-08 23:44:00,
2013-07-09 02:49:00,78.1,55.0,29.93,NE,45,0.0,3.1,45,0.00,,---,0.00,VWS V13.01,2013-07-08 23:49:00,
2013-07-09 02:55:00,78.1,55.0,29.93,SE,135,0.0,3.1,45,0.00,,---,0.00,VWS V13.01,2013-07-08 23:55:00,
2013-07-09 03:00:00,78.1,55.0,29.93,ENE,67,0.0,3.1,45,0.00,,---,0.00,VWS V13.01,2013-07-09 00:00:00,
2013-07-09 03:05:00,78.1,55.0,29.92,ENE,67,0.0,3.1,45,0.00,,---,0.00,VWS V13.01,2013-07-09 00:05:00,
2013-07-09 03:10:00,78.1,54.4,29.92,NE,45,0.0,1.3,44,0.00,,---,0.00,VWS V13.01,2013-07-09 00:10:00,
2013-07-09 03:16:00,78.1,54.4,29.92,NW,315,2.0,2.0,44,0.00,,---,0.00,VWS V13.01,2013-07-09 00:16:00,
2013-07-09 03:21:00,78.3,54.6,29.92,NNE,22,0.0,1.8,44,0.00,,---,0.00,VWS V13.01,2013-07-09 00:21:00,
2013-07-09 03:27:00,78.4,54.7,29.92,NNE,22,0.0,1.8,44,0.00,,---,0.00,VWS V13.01,2013-07-09 00:27:00,
2013-07-09 03:33:00,78.4,54.7,29.92,NE,45,0.0,5.1,44,0.00,,---,0.00,VWS V13.01,2013-07-09 00:33:00,
2013-07-09 03:38:00,78.4,54.7,29.92,NNE,22,3.6,6.0,44,0.00,,---,0.00,VWS V13.01,2013-07-09 00:38:00,
2013-07-09 03:43:00,78.6,54.3,29.92,NNW,337,3.8,5.8,43,0.00,,---,0.00,VWS V13.01,2013-07-09 00:43:00,
2013-07-09 03:49:00,78.6,54.3,29.91,NNE,22,3.4,4.9,43,0.00,,---,0.00,VWS V13.01,2013-07-09 00:49:00,
2013-07-09 03:55:00,79.0,54.6,29.92,NNW,337,5.1,7.8,43,0.00,,---,0.00,VWS V13.01,2013-07-09 00:55:00,
2013-07-09 04:01:00,79.0,54.0,29.91,North,0,13.9,13.9,42,0.00,,---,0.00,VWS V13.01,2013-07-09 01:01:00,
2013-07-09 04:06:00,79.3,54.2,29.91,NNW,337,10.5,10.5,42,0.00,,---,0.00,VWS V13.01,2013-07-09 01:06:00,
2013-07-09 04:11:00,79.5,54.4,29.91,NW,315,8.9,9.8,42,0.00,,---,0.00,VWS V13.01,2013-07-09 01:11:00,
2013-07-09 04:17:00,79.7,54.6,29.91,North,0,6.0,12.3,42,0.00,,---,0.00,VWS V13.01,2013-07-09 01:17:00,
2013-07-09 04:22:00,79.7,54.6,29.91,NNW,337,3.6,17.2,42,0.00,,---,0.00,VWS V13.01,2013-07-09 01:22:00,
2013-07-09 04:27:00,79.7,54.6,29.91,NNE,22,6.0,10.5,42,0.00,,---,0.00,VWS V13.01,2013-07-09 01:27:00,
2013-07-09 04:32:00,79.7,54.6,29.91,NW,315,10.3,10.3,42,0.00,,---,0.00,VWS V13.01,2013-07-09 01:32:00,
2013-07-09 04:38:00,79.7,54.6,29.90,WNW,292,6.3,15.2,42,0.00,,---,0.00,VWS V13.01,2013-07-09 01:38:00,
2013-07-09 04:43:00,79.5,54.4,29.90,North,0,6.9,11.2,42,0.00,,---,0.00,VWS V13.01,2013-07-09 01:43:00,
2013-07-09 04:48:00,79.5,54.4,29.90,NNE,22,5.1,5.1,42,0.00,,---,0.00,VWS V13.01,2013-07-09 01:48:00,
2013-07-09 04:53:00,79.3,54.2,29.90,NNW,337,11.9,16.1,42,0.00,,---,0.00,VWS V13.01,2013-07-09 01:53:00,
2013-07-09 04:59:00,79.3,54.2,29.90,NNW,337,4.3,5.1,42,0.00,,---,0.00,VWS V13.01,2013-07-09 01:59:00,
2013-07-09 05:05:00,79.2,54.2,29.90,NNE,22,0.9,5.4,42,0.00,,---,0.00,VWS V13.01,2013-07-09 02:05:00,
2013-07-09 05:10:00,79.2,54.2,29.90,NW,315,14.1,14.1,42,0.00,,---,0.00,VWS V13.01,2013-07-09 02:10:00,
2013-07-09 05:15:00,79.0,54.0,29.90,NNW,337,8.7,8.7,42,0.00,,---,0.00,VWS V13.01,2013-07-09 02:15:00,
2013-07-09 05:21:00,79.0,54.0,29.90,North,0,2.5,10.1,42,0.00,,---,0.00,VWS V13.01,2013-07-09 02:21:00,
2013-07-09 05:26:00,78.6,53.6,29.90,North,0,8.3,8.3,42,0.00,,---,0.00,VWS V13.01,2013-07-09 02:26:00,
2013-07-09 05:31:00,78.8,53.8,29.91,NNW,337,7.8,12.8,42,0.00,,---,0.00,VWS V13.01,2013-07-09 02:31:00,
2013-07-09 05:36:00,78.8,53.8,29.91,WNW,292,0.9,8.7,42,0.00,,---,0.00,VWS V13.01,2013-07-09 02:36:00,
2013-07-09 05:41:00,79.0,54.0,29.91,NNE,22,6.0,11.9,42,0.00,,---,0.00,VWS V13.01,2013-07-09 02:41:00,
2013-07-09 05:47:00,79.0,54.0,29.91,NNW,337,8.5,8.5,42,0.00,,---,0.00,VWS V13.01,2013-07-09 02:47:00,
2013-07-09 05:52:00,79.0,54.0,29.91,North,0,6.3,7.4,42,0.00,,---,0.00,VWS V13.01,2013-07-09 02:52:00,
2013-07-09 05:57:00,79.0,54.0,29.91,NNW,337,6.9,12.3,42,0.00,,---,0.00,VWS V13.01,2013-07-09 02:57:00,
2013-07-09 06:03:00,79.2,54.2,29.90,NW,315,3.8,8.7,42,0.00,,---,0.00,VWS V13.01,2013-07-09 03:03:00,
2013-07-09 06:08:00,79.0,54.0,29.90,NW,315,11.9,11.9,42,0.00,,---,0.00,VWS V13.01,2013-07-09 03:08:00,
2013-07-09 06:13:00,79.0,54.0,29.91,North,0,8.9,8.9,42,0.00,,---,0.00,VWS V13.01,2013-07-09 03:13:00,
2013-07-09 06:18:00,79.0,54.0,29.90,North,0,3.6,3.6,42,0.00,,---,0.00,VWS V13.01,2013-07-09 03:18:00,
2013-07-09 06:24:00,79.0,53.3,29.90,NNE,22,1.1,1.1,41,0.00,,---,0.00,VWS V13.01,2013-07-09 03:24:00,
2013-07-09 06:29:00,79.0,53.3,29.91,NW,315,0.0,3.6,41,0.00,,---,0.00,VWS V13.01,2013-07-09 03:29:00,
2013-07-09 06:34:00,78.8,53.8,29.91,NW,315,5.1,5.1,42,0.00,,---,0.00,VWS V13.01,2013-07-09 03:34:00,
2013-07-09 06:39:00,78.6,53.6,29.90,NNW,337,2.9,5.1,42,0.00,,---,0.00,VWS V13.01,2013-07-09 03:39:00,
2013-07-09 06:45:00,78.6,53.6,29.91,NNW,337,0.0,4.7,42,0.00,,---,0.00,VWS V13.01,2013-07-09 03:45:00,
2013-07-09 06:50:00,78.6,53.6,29.91,SSW,202,0.0,0.9,42,0.00,,---,0.00,VWS V13.01,2013-07-09 03:50:00,
2013-07-09 06:55:00,78.6,53.6,29.91,NNE,22,1.8,2.7,42,0.00,,---,0.00,VWS V13.01,2013-07-09 03:55:00,
2013-07-09 07:01:00,78.6,54.3,29.91,NNW,337,0.0,2.7,43,0.00,,---,0.00,VWS V13.01,2013-07-09 04:01:00,
2013-07-09 07:02:00,78.6,53.6,29.91,North,0,0.0,2.7,42,0.00,,---,0.00,VWS V13.01,2013-07-09 04:02:00,
2013-07-09 07:07:00,78.4,54.1,29.91,East,90,0.0,2.7,43,0.00,,---,0.00,VWS V13.01,2013-07-09 04:07:00,
2013-07-09 07:12:00,78.4,54.1,29.90,South,180,1.3,1.3,43,0.00,,---,0.00,VWS V13.01,2013-07-09 04:12:00,
2013-07-09 07:17:00,78.4,54.7,29.90,ESE,112,0.0,1.3,44,0.00,,---,0.00,VWS V13.01,2013-07-09 04:17:00,
2013-07-09 07:22:00,78.4,54.7,29.90,SE,135,0.0,1.3,44,0.00,,---,0.00,VWS V13.01,2013-07-09 04:22:00,
2013-07-09 07:27:00,78.4,54.7,29.90,East,90,0.0,1.3,44,0.00,,---,0.00,VWS V13.01,2013-07-09 04:27:00,
2013-07-09 07:32:00,78.4,54.7,29.90,SSW,202,0.0,1.3,44,0.00,,---,0.00,VWS V13.01,2013-07-09 04:32:00,
2013-07-09 07:37:00,78.4,54.7,29.90,NNE,22,0.0,1.3,44,0.00,,---,0.00,VWS V13.01,2013-07-09 04:37:00,
2013-07-09 07:42:00,78.4,54.7,29.90,ENE,67,0.0,1.3,44,0.00,,---,0.00,VWS V13.01,2013-07-09 04:42:00,
2013-07-09 07:47:00,78.6,55.5,29.90,ESE,112,0.0,1.6,45,0.00,,---,0.00,VWS V13.01,2013-07-09 04:47:00,
2013-07-09 07:52:00,79.2,55.4,29.90,ESE,112,2.2,5.4,44,0.00,,---,0.00,VWS V13.01,2013-07-09 04:52:00,
2013-07-09 07:58:00,79.5,55.7,29.90,NE,45,0.0,0.7,44,0.00,,---,0.00,VWS V13.01,2013-07-09 04:58:00,
2013-07-09 08:03:00,79.9,55.4,29.90,North,0,0.0,1.8,43,0.00,,---,0.00,VWS V13.01,2013-07-09 05:03:00,
2013-07-09 08:08:00,80.4,55.9,29.90,NNE,22,0.0,2.2,43,0.00,,---,0.00,VWS V13.01,2013-07-09 05:08:00,
2013-07-09 08:13:00,81.0,55.8,29.90,NNW,337,1.8,1.8,42,0.00,,---,0.00,VWS V13.01,2013-07-09 05:13:00,
2013-07-09 08:18:00,81.3,56.0,29.90,North,0,6.3,6.3,42,0.00,,---,0.00,VWS V13.01,2013-07-09 05:18:00,
2013-07-09 08:23:00,82.0,55.3,29.90,North,0,11.0,14.1,40,0.00,,---,0.00,VWS V13.01,2013-07-09 05:23:00,
2013-07-09 08:28:00,82.2,55.5,29.90,NE,45,0.0,2.0,40,0.00,,---,0.00,VWS V13.01,2013-07-09 05:28:00,
2013-07-09 08:33:00,82.6,55.2,29.90,NW,315,12.5,12.5,39,0.00,,---,0.00,VWS V13.01,2013-07-09 05:33:00,
2013-07-09 08:38:00,82.9,55.4,29.90,WNW,292,2.2,6.0,39,0.00,,---,0.00,VWS V13.01,2013-07-09 05:38:00,
2013-07-09 08:43:00,83.1,55.6,29.90,WNW,292,7.6,7.6,39,0.00,,---,0.00,VWS V13.01,2013-07-09 05:43:00,
2013-07-09 08:48:00,83.3,54.3,29.90,WNW,292,6.3,6.3,37,0.00,,---,0.00,VWS V13.01,2013-07-09 05:48:00,
2013-07-09 08:53:00,83.5,53.8,29.90,North,0,11.6,14.1,36,0.00,,---,0.00,VWS V13.01,2013-07-09 05:53:00,
2013-07-09 08:58:00,83.8,54.8,29.90,North,0,4.0,4.0,37,0.00,,---,0.00,VWS V13.01,2013-07-09 05:58:00,
2013-07-09 09:03:00,83.8,54.0,29.90,North,0,15.7,15.7,36,0.00,,---,0.00,VWS V13.01,2013-07-09 06:03:00,
2013-07-09 09:08:00,84.0,55.0,29.91,NW,315,12.8,12.8,37,0.00,,---,0.00,VWS V13.01,2013-07-09 06:08:00,
2013-07-09 09:13:00,84.0,55.0,29.90,NNW,337,12.5,20.4,37,0.00,,---,0.00,VWS V13.01,2013-07-09 06:13:00,
2013-07-09 09:18:00,84.0,55.0,29.90,NNW,337,15.7,15.7,37,0.00,,---,0.00,VWS V13.01,2013-07-09 06:18:00,
2013-07-09 09:23:00,84.0,55.0,29.90,NNW,337,11.9,25.5,37,0.00,,---,0.00,VWS V13.01,2013-07-09 06:23:00,
2013-07-09 09:28:00,84.0,55.0,29.90,NNE,22,19.2,19.2,37,0.00,,---,0.00,VWS V13.01,2013-07-09 06:28:00,
2013-07-09 09:33:00,84.0,55.0,29.91,NNE,22,21.0,21.0,37,0.00,,---,0.00,VWS V13.01,2013-07-09 06:33:00,
2013-07-09 09:38:00,84.0,55.0,29.90,NW,315,18.8,23.3,37,0.00,,---,0.00,VWS V13.01,2013-07-09 06:38:00,
2013-07-09 09:43:00,84.4,55.3,29.91,NW,315,15.7,16.8,37,0.00,,---,0.00,VWS V13.01,2013-07-09 06:43:00,
2013-07-09 09:48:00,84.4,55.3,29.90,WNW,292,8.5,20.1,37,0.00,,---,0.00,VWS V13.01,2013-07-09 06:48:00,
2013-07-09 09:53:00,84.4,55.3,29.90,NW,315,16.6,24.8,37,0.00,,---,0.00,VWS V13.01,2013-07-09 06:53:00,
2013-07-09 09:58:00,84.6,55.5,29.90,NNW,337,4.7,6.3,37,0.00,,---,0.00,VWS V13.01,2013-07-09 06:58:00,
2013-07-09 10:03:00,84.9,55.8,29.90,NNW,337,15.4,19.5,37,0.00,,---,0.00,VWS V13.01,2013-07-09 07:03:00,
2013-07-09 10:08:00,84.7,55.6,29.90,NNW,337,25.7,25.7,37,0.00,,---,0.00,VWS V13.01,2013-07-09 07:08:00,
2013-07-09 10:13:00,84.7,56.3,29.90,NNW,337,20.6,20.6,38,0.00,,---,0.00,VWS V13.01,2013-07-09 07:13:00,
2013-07-09 10:18:00,85.1,56.7,29.90,NW,315,3.4,8.7,38,0.00,,---,0.00,VWS V13.01,2013-07-09 07:18:00,
2013-07-09 10:23:00,85.3,56.8,29.90,NNE,22,9.4,14.8,38,0.00,,---,0.00,VWS V13.01,2013-07-09 07:23:00,
2013-07-09 10:28:00,84.9,57.2,29.90,North,0,20.8,20.8,39,0.00,,---,0.00,VWS V13.01,2013-07-09 07:28:00,
2013-07-09 10:33:00,84.9,56.5,29.90,NE,45,8.3,13.9,38,0.00,,---,0.00,VWS V13.01,2013-07-09 07:33:00,
2013-07-09 10:38:00,85.1,56.7,29.90,North,0,16.6,16.6,38,0.00,,---,0.00,VWS V13.01,2013-07-09 07:38:00,
2013-07-09 10:43:00,85.6,57.1,29.90,NNW,337,7.4,11.6,38,0.00,,---,0.00,VWS V13.01,2013-07-09 07:43:00,
2013-07-09 10:48:00,85.8,57.3,29.91,NNE,22,17.0,17.0,38,0.00,,---,0.00,VWS V13.01,2013-07-09 07:48:00,
2013-07-09 10:53:00,85.6,57.1,29.90,NNW,337,18.6,18.6,38,0.00,,---,0.00,VWS V13.01,2013-07-09 07:53:00,
2013-07-09 10:58:00,85.8,57.3,29.91,NNE,22,0.0,2.0,38,0.00,,---,0.00,VWS V13.01,2013-07-09 07:58:00,
2013-07-09 11:03:00,86.2,57.6,29.90,NNW,337,6.5,18.3,38,0.00,,---,0.00,VWS V13.01,2013-07-09 08:03:00,
2013-07-09 11:08:00,85.8,57.3,29.90,NNW,337,16.1,16.1,38,0.00,,---,0.00,VWS V13.01,2013-07-09 08:08:00,
2013-07-09 11:13:00,85.8,57.3,29.90,NNE,22,1.8,17.9,38,0.00,,---,0.00,VWS V13.01,2013-07-09 08:13:00,
2013-07-09 11:18:00,86.5,57.9,29.90,East,90,4.3,14.5,38,0.00,,---,0.00,VWS V13.01,2013-07-09 08:18:00,
2013-07-09 11:23:00,86.5,57.9,29.90,North,0,12.8,15.0,38,0.00,,---,0.00,VWS V13.01,2013-07-09 08:23:00,
2013-07-09 11:28:00,86.5,57.9,29.90,NNE,22,2.2,5.6,38,0.00,,---,0.00,VWS V13.01,2013-07-09 08:28:00,
2013-07-09 11:33:00,87.1,58.4,29.90,ENE,67,8.9,13.0,38,0.00,,---,0.00,VWS V13.01,2013-07-09 08:33:00,
2013-07-09 11:38:00,87.1,58.4,29.90,North,0,13.2,13.2,38,0.00,,---,0.00,VWS V13.01,2013-07-09 08:38:00,
2013-07-09 11:43:00,87.1,57.7,29.90,North,0,3.6,10.3,37,0.00,,---,0.00,VWS V13.01,2013-07-09 08:43:00,
2013-07-09 11:48:00,87.4,58.0,29.90,NNW,337,2.9,9.2,37,0.00,,---,0.00,VWS V13.01,2013-07-09 08:48:00,
2013-07-09 11:53:00,87.1,58.4,29.90,NNE,22,5.4,5.4,38,0.00,,---,0.00,VWS V13.01,2013-07-09 08:53:00,
2013-07-09 11:58:00,87.6,58.1,29.90,North,0,2.2,4.9,37,0.00,,---,0.00,VWS V13.01,2013-07-09 08:58:00,
2013-07-09 12:03:00,88.0,58.5,29.90,North,0,5.4,14.5,37,0.00,,---,0.00,VWS V13.01,2013-07-09 09:03:00,
2013-07-09 12:08:00,88.0,58.5,29.90,NNW,337,0.0,3.6,37,0.00,,---,0.00,VWS V13.01,2013-07-09 09:08:00,
2013-07-09 12:13:00,88.2,58.7,29.89,North,0,6.9,8.9,37,0.00,,---,0.00,VWS V13.01,2013-07-09 09:13:00,
2013-07-09 12:18:00,88.0,56.9,29.90,NW,315,5.6,5.6,35,0.00,,---,0.00,VWS V13.01,2013-07-09 09:18:00,
2013-07-09 12:23:00,88.3,57.2,29.90,NNW,337,12.1,12.1,35,0.00,,---,0.00,VWS V13.01,2013-07-09 09:23:00,
2013-07-09 12:28:00,88.0,57.7,29.89,North,0,14.1,14.1,36,0.00,,---,0.00,VWS V13.01,2013-07-09 09:28:00,
2013-07-09 12:33:00,87.6,57.4,29.90,NE,45,0.0,13.6,36,0.00,,---,0.00,VWS V13.01,2013-07-09 09:33:00,
2013-07-09 12:38:00,88.2,58.7,29.90,North,0,2.0,16.8,37,0.00,,---,0.00,VWS V13.01,2013-07-09 09:38:00,
2013-07-09 12:43:00,88.0,58.5,29.89,NNE,22,6.7,17.4,37,0.00,,---,0.00,VWS V13.01,2013-07-09 09:43:00,
2013-07-09 12:48:00,88.2,58.7,29.89,South,180,0.0,5.1,37,0.00,,---,0.00,VWS V13.01,2013-07-09 09:48:00,
2013-07-09 12:53:00,88.3,58.8,29.89,NNW,337,13.6,16.6,37,0.00,,---,0.00,VWS V13.01,2013-07-09 09:53:00,
2013-07-09 12:58:00,87.6,58.9,29.89,NNW,337,10.3,16.8,38,0.00,,---,0.00,VWS V13.01,2013-07-09 09:58:00,
2013-07-09 13:03:00,87.6,59.6,29.89,WNW,292,2.9,21.9,39,0.00,,---,0.00,VWS V13.01,2013-07-09 10:03:00,
2013-07-09 13:08:00,88.5,59.7,29.88,North,0,7.4,11.0,38,0.00,,---,0.00,VWS V13.01,2013-07-09 10:08:00,
2013-07-09 13:13:00,88.9,60.0,29.88,ENE,67,2.2,8.9,38,0.00,,---,0.00,VWS V13.01,2013-07-09 10:13:00,
2013-07-09 13:18:00,88.9,59.3,29.88,NNE,22,11.2,13.6,37,0.00,,---,0.00,VWS V13.01,2013-07-09 10:18:00,
2013-07-09 13:23:00,88.9,59.3,29.88,NE,45,4.0,5.6,37,0.00,,---,0.00,VWS V13.01,2013-07-09 10:23:00,
2013-07-09 13:28:00,89.4,59.0,29.88,NNE,22,6.0,6.0,36,0.00,,---,0.00,VWS V13.01,2013-07-09 10:28:00,
2013-07-09 13:33:00,89.6,59.1,29.89,NW,315,1.8,12.8,36,0.00,,---,0.00,VWS V13.01,2013-07-09 10:33:00,
2013-07-09 13:38:00,89.2,58.8,29.88,NNE,22,7.4,16.8,36,0.00,,---,0.00,VWS V13.01,2013-07-09 10:38:00,
2013-07-09 13:43:00,88.9,58.5,29.88,North,0,3.8,22.1,36,0.00,,---,0.00,VWS V13.01,2013-07-09 10:43:00,
2013-07-09 13:48:00,89.4,59.0,29.88,North,0,23.9,23.9,36,0.00,,---,0.00,VWS V13.01,2013-07-09 10:48:00,
2013-07-09 13:53:00,89.4,59.7,29.88,NNW,337,8.1,8.5,37,0.00,,---,0.00,VWS V13.01,2013-07-09 10:53:00,
2013-07-09 13:58:00,89.8,58.5,29.87,WSW,247,3.6,8.9,35,0.00,,---,0.00,VWS V13.01,2013-07-09 10:58:00,
2013-07-09 14:03:00,89.6,59.1,29.87,North,0,3.6,6.5,36,0.00,,---,0.00,VWS V13.01,2013-07-09 11:03:00,
2013-07-09 14:08:00,90.0,58.7,29.87,NNW,337,12.3,12.3,35,0.00,,---,0.00,VWS V13.01,2013-07-09 11:08:00,
2013-07-09 14:13:00,90.0,58.7,29.87,NNW,337,6.9,6.9,35,0.00,,---,0.00,VWS V13.01,2013-07-09 11:13:00,
2013-07-09 14:18:00,90.0,58.7,29.88,NNE,22,0.9,2.9,35,0.00,,---,0.00,VWS V13.01,2013-07-09 11:18:00,
2013-07-09 14:23:00,90.1,58.0,29.87,North,0,6.9,11.0,34,0.00,,---,0.00,VWS V13.01,2013-07-09 11:23:00,
2013-07-09 14:28:00,90.1,58.8,29.87,SW,225,1.8,15.4,35,0.00,,---,0.00,VWS V13.01,2013-07-09 11:28:00,
2013-07-09 14:33:00,90.1,58.8,29.88,NW,315,7.6,14.3,35,0.00,,---,0.00,VWS V13.01,2013-07-09 11:33:00,
2013-07-09 14:38:00,90.0,58.7,29.87,West,270,1.1,6.7,35,0.00,,---,0.00,VWS V13.01,2013-07-09 11:38:00,
2013-07-09 14:43:00,90.5,58.3,29.87,North,0,9.2,14.1,34,0.00,,---,0.00,VWS V13.01,2013-07-09 11:43:00,
2013-07-09 14:48:00,90.1,58.8,29.87,NNW,337,12.5,12.5,35,0.00,,---,0.00,VWS V13.01,2013-07-09 11:48:00,
2013-07-09 14:54:00,90.1,58.8,29.87,NE,45,6.3,17.9,35,0.00,,---,0.00,VWS V13.01,2013-07-09 11:54:00,
2013-07-09 14:59:00,90.7,59.3,29.87,NNE,22,15.7,15.7,35,0.00,,---,0.00,VWS V13.01,2013-07-09 11:59:00,
2013-07-09 15:04:00,90.1,58.8,29.86,NNW,337,3.1,3.1,35,0.00,,---,0.00,VWS V13.01,2013-07-09 12:04:00,
2013-07-09 15:09:00,90.3,59.0,29.86,North,0,4.0,4.7,35,0.00,,---,0.00,VWS V13.01,2013-07-09 12:09:00,
2013-07-09 15:14:00,90.7,59.3,29.86,North,0,12.1,12.1,35,0.00,,---,0.00,VWS V13.01,2013-07-09 12:14:00,
2013-07-09 15:19:00,90.5,59.1,29.86,ENE,67,11.9,14.3,35,0.00,,---,0.00,VWS V13.01,2013-07-09 12:19:00,
2013-07-09 15:24:00,90.7,59.3,29.86,North,0,7.4,7.4,35,0.00,,---,0.00,VWS V13.01,2013-07-09 12:24:00,
2013-07-09 15:29:00,90.7,58.5,29.86,North,0,8.9,8.9,34,0.00,,---,0.00,VWS V13.01,2013-07-09 12:29:00,
2013-07-09 15:34:00,90.7,58.5,29.86,North,0,4.0,12.5,34,0.00,,---,0.00,VWS V13.01,2013-07-09 12:34:00,
2013-07-09 15:39:00,90.5,58.3,29.86,North,0,17.4,17.4,34,0.00,,---,0.00,VWS V13.01,2013-07-09 12:39:00,
2013-07-09 15:44:00,90.1,58.8,29.86,North,0,9.4,14.1,35,0.00,,---,0.00,VWS V13.01,2013-07-09 12:44:00,
2013-07-09 15:49:00,90.3,59.0,29.86,NNE,22,17.0,17.0,35,0.00,,---,0.00,VWS V13.01,2013-07-09 12:49:00,
2013-07-09 15:54:00,90.5,58.3,29.85,ENE,67,5.4,19.9,34,0.00,,---,0.00,VWS V13.01,2013-07-09 12:54:00,
2013-07-09 15:59:00,90.7,58.5,29.85,NE,45,13.6,13.6,34,0.00,,---,0.00,VWS V13.01,2013-07-09 12:59:00,
2013-07-09 16:04:00,90.5,58.3,29.86,NE,45,3.6,14.8,34,0.00,,---,0.00,VWS V13.01,2013-07-09 13:04:00,
2013-07-09 16:09:00,90.1,58.0,29.85,East,90,8.5,24.6,34,0.00,,---,0.00,VWS V13.01,2013-07-09 13:09:00,
2013-07-09 16:14:00,90.5,58.3,29.85,NNW,337,4.5,13.9,34,0.00,,---,0.00,VWS V13.01,2013-07-09 13:14:00,
2013-07-09 16:19:00,90.7,58.5,29.85,NNE,22,3.1,11.6,34,0.00,,---,0.00,VWS V13.01,2013-07-09 13:19:00,
2013-07-09 16:24:00,90.7,57.7,29.85,ESE,112,0.0,15.7,33,0.00,,---,0.00,VWS V13.01,2013-07-09 13:24:00,
2013-07-09 16:29:00,91.0,57.1,29.84,WNW,292,5.1,5.6,32,0.00,,---,0.00,VWS V13.01,2013-07-09 13:29:00,
2013-07-09 16:34:00,91.0,57.1,29.85,North,0,16.6,16.6,32,0.00,,---,0.00,VWS V13.01,2013-07-09 13:34:00,
2013-07-09 16:39:00,90.7,56.8,29.85,NNE,22,4.0,10.1,32,0.00,,---,0.00,VWS V13.01,2013-07-09 13:39:00,
2013-07-09 16:44:00,91.0,57.1,29.85,NNW,337,4.5,4.5,32,0.00,,---,0.00,VWS V13.01,2013-07-09 13:44:00,
2013-07-09 16:49:00,90.7,56.8,29.84,NW,315,11.2,19.7,32,0.00,,---,0.00,VWS V13.01,2013-07-09 13:49:00,
2013-07-09 16:54:00,90.7,56.8,29.84,NNW,337,8.3,10.5,32,0.00,,---,0.00,VWS V13.01,2013-07-09 13:54:00,
2013-07-09 16:59:00,90.3,56.5,29.84,East,90,2.2,11.9,32,0.00,,---,0.00,VWS V13.01,2013-07-09 13:59:00,
2013-07-09 17:04:00,90.3,56.5,29.84,NE,45,0.0,2.5,32,0.00,,---,0.00,VWS V13.01,2013-07-09 14:04:00,
2013-07-09 17:09:00,90.3,56.5,29.83,SE,135,3.1,9.6,32,0.00,,---,0.00,VWS V13.01,2013-07-09 14:09:00,
2013-07-09 17:14:00,90.3,57.3,29.83,NNW,337,13.9,13.9,33,0.00,,---,0.00,VWS V13.01,2013-07-09 14:14:00,
2013-07-09 17:19:00,90.1,57.2,29.84,NE,45,17.7,17.7,33,0.00,,---,0.00,VWS V13.01,2013-07-09 14:19:00,
2013-07-09 17:24:00,89.8,56.9,29.84,NW,315,2.0,3.8,33,0.00,,---,0.00,VWS V13.01,2013-07-09 14:24:00,
2013-07-09 17:29:00,89.4,56.5,29.84,NE,45,12.8,22.4,33,0.00,,---,0.00,VWS V13.01,2013-07-09 14:29:00,
2013-07-09 17:34:00,89.4,57.4,29.84,NE,45,15.0,15.0,34,0.00,,---,0.00,VWS V13.01,2013-07-09 14:34:00,
2013-07-09 17:39:00,89.2,57.2,29.84,WNW,292,6.9,19.7,34,0.00,,---,0.00,VWS V13.01,2013-07-09 14:39:00,
2013-07-09 17:44:00,89.4,56.5,29.83,NNE,22,4.9,6.5,33,0.00,,---,0.00,VWS V13.01,2013-07-09 14:44:00,
2013-07-09 17:49:00,89.2,56.4,29.84,NNW,337,7.8,18.8,33,0.00,,---,0.00,VWS V13.01,2013-07-09 14:49:00,
2013-07-09 17:54:00,89.1,56.3,29.83,North,0,8.7,10.5,33,0.00,,---,0.00,VWS V13.01,2013-07-09 14:54:00,
2013-07-09 17:59:00,88.9,56.9,29.83,North,0,12.1,19.2,34,0.00,,---,0.00,VWS V13.01,2013-07-09 14:59:00,
2013-07-09 18:04:00,88.9,56.9,29.83,North,0,4.5,4.5,34,0.00,,---,0.00,VWS V13.01,2013-07-09 15:04:00,
2013-07-09 18:09:00,89.1,56.3,29.83,North,0,10.1,17.9,33,0.00,,---,0.00,VWS V13.01,2013-07-09 15:09:00,
2013-07-09 18:14:00,88.7,57.6,29.83,North,0,2.7,7.6,35,0.00,,---,0.00,VWS V13.01,2013-07-09 15:14:00,
2013-07-09 18:19:00,88.7,59.1,29.83,North,0,2.9,5.4,37,0.00,,---,0.00,VWS V13.01,2013-07-09 15:19:00,
2013-07-09 18:24:00,88.9,58.5,29.83,North,0,4.9,12.8,36,0.00,,---,0.00,VWS V13.01,2013-07-09 15:24:00,
2013-07-09 18:29:00,88.9,57.7,29.83,NNW,337,4.7,8.5,35,0.00,,---,0.00,VWS V13.01,2013-07-09 15:29:00,
2013-07-09 18:34:00,88.5,57.4,29.83,NNE,22,4.7,4.7,35,0.00,,---,0.00,VWS V13.01,2013-07-09 15:34:00,
2013-07-09 18:39:00,88.5,58.9,29.83,NNE,22,3.8,5.6,37,0.00,,---,0.00,VWS V13.01,2013-07-09 15:39:00,
2013-07-09 18:44:00,88.5,59.7,29.83,North,0,5.8,5.8,38,0.00,,---,0.00,VWS V13.01,2013-07-09 15:44:00,
2013-07-09 18:49:00,88.3,57.2,29.83,NNW,337,7.6,13.0,35,0.00,,---,0.00,VWS V13.01,2013-07-09 15:49:00,
2013-07-09 18:54:00,88.0,59.2,29.82,SW,225,1.6,1.6,38,0.00,,---,0.00,VWS V13.01,2013-07-09 15:54:00,
2013-07-09 18:59:00,87.8,59.1,29.82,NNW,337,5.4,9.8,38,0.00,,---,0.00,VWS V13.01,2013-07-09 15:59:00,
2013-07-09 19:04:00,88.0,59.2,29.83,ENE,67,4.3,4.3,38,0.00,,---,0.00,VWS V13.01,2013-07-09 16:04:00,
2013-07-09 19:09:00,88.0,58.5,29.82,NNW,337,9.2,9.2,37,0.00,,---,0.00,VWS V13.01,2013-07-09 16:09:00,
2013-07-09 19:14:00,87.8,57.5,29.82,NE,45,10.1,10.1,36,0.00,,---,0.00,VWS V13.01,2013-07-09 16:14:00,
2013-07-09 19:19:00,87.8,58.3,29.82,NNE,22,5.1,17.0,37,0.00,,---,0.00,VWS V13.01,2013-07-09 16:19:00,
2013-07-09 19:24:00,87.6,59.6,29.82,NNW,337,5.6,19.5,39,0.00,,---,0.00,VWS V13.01,2013-07-09 16:24:00,
2013-07-09 19:29:00,87.4,60.1,29.82,NW,315,0.0,6.9,40,0.00,,---,0.00,VWS V13.01,2013-07-09 16:29:00,
2013-07-09 19:34:00,87.1,59.9,29.82,NE,45,3.4,11.4,40,0.00,,---,0.00,VWS V13.01,2013-07-09 16:34:00,
2013-07-09 19:39:00,86.9,59.7,29.82,North,0,8.1,15.7,40,0.00,,---,0.00,VWS V13.01,2013-07-09 16:39:00,
2013-07-09 19:44:00,86.7,60.2,29.82,North,0,1.6,1.6,41,0.00,,---,0.00,VWS V13.01,2013-07-09 16:44:00,
2013-07-09 19:49:00,86.5,60.7,29.82,NNE,22,0.0,13.6,42,0.00,,---,0.00,VWS V13.01,2013-07-09 16:49:00,
2013-07-09 19:54:00,86.4,60.6,29.82,NE,45,7.4,7.4,42,0.00,,---,0.00,VWS V13.01,2013-07-09 16:54:00,
2013-07-09 19:59:00,86.2,60.4,29.82,NE,45,3.1,8.3,42,0.00,,---,0.00,VWS V13.01,2013-07-09 16:59:00,
2013-07-09 20:04:00,85.8,60.7,29.82,North,0,13.0,13.0,43,0.00,,---,0.00,VWS V13.01,2013-07-09 17:04:00,
2013-07-09 20:09:00,85.8,61.4,29.83,NE,45,0.0,12.8,44,0.00,,---,0.00,VWS V13.01,2013-07-09 17:09:00,
2013-07-09 20:14:00,85.6,61.2,29.82,NNE,22,13.9,13.9,44,0.00,,---,0.00,VWS V13.01,2013-07-09 17:14:00,
2013-07-09 20:19:00,85.3,60.9,29.82,WNW,292,5.1,10.5,44,0.00,,---,0.00,VWS V13.01,2013-07-09 17:19:00,
2013-07-09 20:24:00,85.3,61.6,29.83,North,0,6.9,10.5,45,0.00,,---,0.00,VWS V13.01,2013-07-09 17:24:00,
2013-07-09 20:29:00,84.9,61.2,29.83,North,0,5.1,11.2,45,0.00,,---,0.00,VWS V13.01,2013-07-09 17:29:00,
2013-07-09 20:34:00,84.9,61.2,29.83,North,0,7.8,10.7,45,0.00,,---,0.00,VWS V13.01,2013-07-09 17:34:00,
2013-07-09 20:39:00,84.7,61.0,29.83,NW,315,8.1,12.3,45,0.00,,---,0.00,VWS V13.01,2013-07-09 17:39:00,
2013-07-09 20:44:00,84.6,61.6,29.83,NNE,22,3.6,8.7,46,0.00,,---,0.00,VWS V13.01,2013-07-09 17:44:00,
2013-07-09 20:49:00,84.4,61.4,29.83,North,0,0.0,6.7,46,0.00,,---,0.00,VWS V13.01,2013-07-09 17:49:00,
2013-07-09 20:55:00,84.2,61.2,29.83,NNW,337,8.1,8.9,46,0.00,,---,0.00,VWS V13.01,2013-07-09 17:55:00,
2013-07-09 21:00:00,84.0,61.0,29.83,North,0,1.3,4.7,46,0.00,,---,0.00,VWS V13.01,2013-07-09 18:00:00,
2013-07-09 21:05:00,84.0,61.0,29.83,WNW,292,4.5,4.5,46,0.00,,---,0.00,VWS V13.01,2013-07-09 18:05:00,
2013-07-09 21:09:00,84.0,61.0,29.83,North,0,2.9,4.7,46,0.00,,---,0.00,VWS V13.01,2013-07-09 18:09:00,
2013-07-09 21:15:00,84.0,61.0,29.84,NNW,337,1.3,4.5,46,0.00,,---,0.00,VWS V13.01,2013-07-09 18:15:00,
2013-07-09 21:20:00,83.8,60.8,29.83,North,0,0.0,3.8,46,0.00,,---,0.00,VWS V13.01,2013-07-09 18:20:00,
2013-07-09 21:25:00,83.8,60.8,29.84,NNE,22,0.0,7.6,46,0.00,,---,0.00,VWS V13.01,2013-07-09 18:25:00,
2013-07-09 21:30:00,83.7,60.7,29.83,NW,315,7.6,7.6,46,0.00,,---,0.00,VWS V13.01,2013-07-09 18:30:00,
2013-07-09 21:35:00,83.5,60.6,29.83,North,0,0.0,5.6,46,0.00,,---,0.00,VWS V13.01,2013-07-09 18:35:00,
2013-07-09 21:40:00,83.5,60.6,29.84,North,0,2.5,5.6,46,0.00,,---,0.00,VWS V13.01,2013-07-09 18:40:00,
2013-07-09 21:45:00,83.5,60.6,29.84,NW,315,0.0,5.4,46,0.00,,---,0.00,VWS V13.01,2013-07-09 18:45:00,
2013-07-09 21:50:00,83.3,60.4,29.84,South,180,0.0,2.9,46,0.00,,---,0.00,VWS V13.01,2013-07-09 18:50:00,
2013-07-09 21:55:00,83.3,60.4,29.84,WNW,292,0.0,1.3,46,0.00,,---,0.00,VWS V13.01,2013-07-09 18:55:00,
2013-07-09 22:00:00,83.3,60.4,29.84,NNW,337,0.0,1.3,46,0.00,,---,0.00,VWS V13.01,2013-07-09 19:00:00,
2013-07-09 22:05:00,83.3,60.4,29.84,NW,315,0.0,1.6,46,0.00,,---,0.00,VWS V13.01,2013-07-09 19:05:00,
2013-07-09 22:10:00,83.3,60.4,29.84,SE,135,0.0,3.1,46,0.00,,---,0.00,VWS V13.01,2013-07-09 19:10:00,
2013-07-09 22:15:00,83.3,60.4,29.84,North,0,0.0,2.0,46,0.00,,---,0.00,VWS V13.01,2013-07-09 19:15:00,
2013-07-09 22:20:00,83.3,60.4,29.84,SW,225,0.0,2.0,46,0.00,,---,0.00,VWS V13.01,2013-07-09 19:20:00,
2013-07-09 22:25:00,83.1,60.2,29.85,WNW,292,0.0,4.3,46,0.00,,---,0.00,VWS V13.01,2013-07-09 19:25:00,
2013-07-09 22:30:00,83.1,60.8,29.85,NNW,337,0.0,3.4,47,0.00,,---,0.00,VWS V13.01,2013-07-09 19:30:00,
2013-07-09 22:35:00,83.1,60.8,29.85,West,270,0.0,6.0,47,0.00,,---,0.00,VWS V13.01,2013-07-09 19:35:00,
2013-07-09 22:40:00,82.9,60.6,29.84,NW,315,3.8,3.8,47,0.00,,---,0.00,VWS V13.01,2013-07-09 19:40:00,
2013-07-09 22:45:00,82.9,60.6,29.84,West,270,0.0,8.9,47,0.00,,---,0.00,VWS V13.01,2013-07-09 19:45:00,
2013-07-09 22:50:00,82.8,60.5,29.84,NNW,337,1.6,3.1,47,0.00,,---,0.00,VWS V13.01,2013-07-09 19:50:00,
2013-07-09 22:55:00,82.6,60.3,29.84,WNW,292,1.8,7.4,47,0.00,,---,0.00,VWS V13.01,2013-07-09 19:55:00,
2013-07-09 23:00:00,82.6,60.3,29.84,North,0,1.6,5.1,47,0.00,,---,0.00,VWS V13.01,2013-07-09 20:00:00,
2013-07-09 23:05:00,82.4,60.2,29.84,NNW,337,0.0,3.1,47,0.00,,---,0.00,VWS V13.01,2013-07-09 20:05:00,
2013-07-09 23:10:00,82.2,60.0,29.84,NNE,22,0.0,1.1,47,0.00,,---,0.00,VWS V13.01,2013-07-09 20:10:00,
2013-07-09 23:15:00,82.2,60.6,29.84,North,0,0.0,10.3,48,0.00,,---,0.00,VWS V13.01,2013-07-09 20:15:00,
2013-07-09 23:20:00,82.0,60.4,29.84,NNW,337,5.6,5.6,48,0.00,,---,0.00,VWS V13.01,2013-07-09 20:20:00,
2013-07-09 23:25:00,82.0,60.4,29.84,NW,315,7.2,8.3,48,0.00,,---,0.00,VWS V13.01,2013-07-09 20:25:00,
2013-07-09 23:30:00,81.9,60.3,29.84,NW,315,3.4,8.5,48,0.00,,---,0.00,VWS V13.01,2013-07-09 20:30:00,
2013-07-09 23:35:00,81.7,60.1,29.84,North,0,2.2,3.1,48,0.00,,---,0.00,VWS V13.01,2013-07-09 20:35:00,
2013-07-09 23:40:00,81.7,60.1,29.84,NW,315,3.4,6.7,48,0.00,,---,0.00,VWS V13.01,2013-07-09 20:40:00,
2013-07-09 23:45:00,81.7,60.1,29.84,NNW,337,1.8,6.3,48,0.00,,---,0.00,VWS V13.01,2013-07-09 20:45:00,
2013-07-09 23:50:00,81.5,59.9,29.84,NW,315,0.0,4.7,48,0.00,,---,0.00,VWS V13.01,2013-07-09 20:50:00,
2013-07-09 23:55:00,81.5,59.9,29.84,NNW,337,6.3,6.3,48,0.00,,---,0.00,VWS V13.01,2013-07-09 20:55:00,